Regional Weather Roundup
Issued by NWS

Home | Current Version | Previous Version | Graphics & Text | Print | Product List | Glossary On
Versions: 1 2 3 4 5 6 7 8 9 10 11 12 13 14 15 16 17 18 19 20 21 22 23 24 25 26 27 28 29 30 31 32 33 34 35 36 37 38 39 40 41 42 43 44 45 46 47 48 49 50
000
ASUS43 KMKX 162311
RWRWI

WISCONSIN REGIONAL WEATHER ROUNDUP
NATIONAL WEATHER SERVICE MILWAUKEE/SULLIVAN WI
600 PM CDT TUE SEP 16 2014

NOTE: "FAIR" INDICATES FEW OR NO CLOUDS BELOW 12,000 FEET WITH NO
SIGNIFICANT WEATHER AND/OR OBSTRUCTIONS TO VISIBILITY.

WIZ001-002-006>008-014>016-023>028-170000-
NORTHWEST WISCONSIN

CITY           SKY/WX    TMP DP  RH WIND       PRES   REMARKS
SUPERIOR ARPT  SUNNY     66  44  44 SW10      29.99S
ASHLAND        SUNNY     65  46  50 SW10      30.00S
HAYWARD        SUNNY     64  40  41 SW7       30.04S
SIREN          SUNNY     64  41  42 SW6       30.04F
RICE LAKE      MOSUNNY   62  42  47 CALM      30.06F
LADYSMITH      MOSUNNY   63  43  47 SW7       30.06F
EAU CLAIRE     SUNNY     64  41  42 S7        30.05F
MENOMONIE      CLEAR     65  40  40 S5        30.06S
NEW RICHMOND   SUNNY     64  42  43 SW5       30.05F
OSCEOLA        SUNNY     65  42  42 SW7       30.06F
$$

WIZ003>005-009-010-017-018-170000-
NORTH CENTRAL WISCONSIN

CITY           SKY/WX    TMP DP  RH WIND       PRES   REMARKS
WOODRUFF       MOSUNNY   63  41  43 W7        30.03S
RHINELANDER    SUNNY     62  42  47 W8        30.04F
EAGLE RIVER    SUNNY     62  37  39 W8        30.02S
LAND O LAKES   CLOUDY    64  40  42 W6        30.02S
PHILLIPS       SUNNY     62  42  48 W8        30.03F
TOMAHAWK       SUNNY     62  41  47 CALM      30.05S
MEDFORD        SUNNY     61  42  49 W3        30.06F
MERRILL        PTSUNNY   62  43  49 W9        30.05F
$$

WIZ029-030-035-036-043>047-170000-
CENTRAL WISCONSIN

CITY           SKY/WX    TMP DP  RH WIND       PRES   REMARKS
WAUSAU         SUNNY     63  43  48 W8        30.05F
MOSINEE        SUNNY     61  45  55 SW8       30.07F
MARSHFIELD     SUNNY     62  43  49 W7        30.07S
STEVENS POINT  SUNNY     61  41  47 SW6       30.07F
WAUPACA        SUNNY     65  43  44 W8        30.07F
WAUTOMA        SUNNY     65  43  44 SW6       30.08F
WISC RAPIDS    SUNNY     63  42  46 W5        30.09S
CAMP DOUGLAS   MOSUNNY   63  46  55 W6        30.08F
$$

WIZ011>013-019>022-031-037>040-048>050-170000-
NORTHEAST WISCONSIN

CITY           SKY/WX    TMP DP  RH WIND       PRES   REMARKS
ANTIGO         SUNNY     60  43  52 W9G16     30.05F
STURGEON BAY   CLEAR     63  45  51 SW12      30.04F
GREEN BAY      SUNNY     63  46  54 W7        30.06F
MANITOWOC      CLEAR     62  43  49 W8        30.08S
APPLETON       MOSUNNY   63  43  48 SW7       30.08F
CLINTONVILLE   SUNNY     63  41  45 W8        30.06S
OSHKOSH        SUNNY     62  44  51 SW6       30.07F
$$

WIZ032>034-041-042-053>061-170000-
SOUTHWEST WISCONSIN

CITY           SKY/WX    TMP DP  RH WIND       PRES   REMARKS
LA CROSSE      SUNNY     67  44  43 SW3       30.07F
SPARTA         SUNNY     64  41  43 W6        30.09S
VIROQUA        FAIR      62  43  49 W3        30.09F
BOSCOBEL       SUNNY     66  44  45 W6        30.09F
PRAIRIE DU CHI SUNNY     65  41  41 S3        30.08S
PLATTEVILLE    FAIR      63  44  50 CALM      30.11S
$$

WIZ056-057-062-063-064-067-068-170000-
SOUTH CENTRAL WISCONSIN

CITY           SKY/WX    TMP DP  RH WIND       PRES   REMARKS
BARABOO/DELLS  SUNNY     63  40  43 W5        30.09S
LONE ROCK      SUNNY     67  42  40 W3        30.09F
WATERTOWN      SUNNY     62  42  47 W6        30.09F
MADISON        MOSUNNY   63  43  48 NW3       30.09F
MIDDLETON      FAIR      64  42  45 CALM      30.10S
MONROE         SUNNY     63  43  48 CALM      30.10S
JANESVILLE     SUNNY     64  41  42 W6        30.09F
$$

WIZ051-052-058>065-066-070>072-170000-
SOUTHEAST WISCONSIN

CITY           SKY/WX    TMP DP  RH WIND       PRES   REMARKS
MILWAUKEE      MOSUNNY   59  42  53 SE10      30.10S
WAUKESHA       SUNNY     61  39  44 W7        30.11F
MILWAUKEE/TIMM SUNNY     63  37  39 W5        30.10F
RACINE         SUNNY     59  43  55 SE8       30.12F
BURLINGTON     SUNNY     61  41  48 W3        30.10S
KENOSHA        SUNNY     60  46  59 E6        30.11S
FOND DU LAC    SUNNY     62  41  46 W5        30.09S
SHEBOYGAN      CLEAR     62  41  46 W8        30.09S
WEST BEND      SUNNY     61  37  41 W5        30.09S
JUNEAU         SUNNY     61  44  54 W5        30.10F
$$

LSZ147-162-170000-
LAKE SUPERIOR

STATION/POSITION TIME  TEMP    WIND        PRES    WAVE
                       AIR SEA DIR/SP/G            HT/PER
                 (UTC) (F)     (DEG/KT/KT) (MB)    (FT/S)
W MID LAKE BUOY  2250   51 46  300/  6/  8 1014.8R   4/ 6
DEVILS ISLAND    2300   60     240/ 16/ 18 1014.6R
PORT WING        2240   68     230/  8/ 13 1015.2F
SAXON HARBOR     2200   69     230/  8/ 15 1015.9
$$

LMZ867-665-643>646-170000-
LAKE MICHIGAN

STATION/POSITION TIME  TEMP    WIND        PRES    WAVE
                       AIR SEA DIR/SP/G            HT/PER
                 (UTC) (F)     (DEG/KT/KT) (MB)    (FT/S)
N MID LAKE BUOY  2250   58 58  210/ 19/ 23 1016.1F   3/ 4
NORTHPORT PIER   2200   65     220/  4/ 12 1016.3F
KEWAUNEE LAKESHO 2200   63     250/  8/ 14 1017.1F
SHEBOYGAN LAKESH 2300   57 50  180/ 11/ 12 1019.1S
PORT WASHINGTON  2200   61     170/  8/ 10 1019.6F
ATWATER BUOY     2300   60     150/ 10/ 12 1020.1F
MILWAUKEE LAKESH 2200   58     140/  9/ 10   N/A
S MID LAKE BUOY  2250   60 65   CALM  /  2 1020.0F   1
KENOSHA   LAKESH 2300   62     150/  7/  8 1019.0F
$$

TC  - TEMPERATURE IN CELSIUS
VSB - VISIBILITY IN STATUTE MILES
WCI - WIND CHILL INDEX
HX  - HEAT INDEX



USA.gov is the U.S. government's official web portal to all federal, state and local government web resources and services.